Weather History for KPEO - November, 2013

Change the Weather History Date:

Wednesday, November 20, 2013

  Actual Average Record
Temperature  
Mean Temperature 28 °F -  
Max Temperature 39 °F - - ()
Min Temperature 18 °F - - ()
Degree Days  
Heating Degree Days 36    
Moisture  
Dew Point 19 °F    
Average Humidity 66    
Maximum Humidity 88    
Minimum Humidity 45    
Precipitation  
Precipitation 0.00 in - - ()
Sea Level Pressure  
Sea Level Pressure 30.55 in    
Wind  
Wind Speed 1 mph (SE)    
Max Wind Speed 12 mph    
Max Gust Speed -    
Visibility 10 miles    
Events      
T = Trace of Precipitation, MM = Missing Value Source: NWS Daily Summary

Daily Weather History Graph

Daily Weather History Graph

Search for Another Location

Airport or City:

Trip Planner

Search our weather history database for the weather conditions in past years. The results will help you decide how hot, cold, wet, or windy it might be!

Date:

Astronomy

Nov. 20, 2013 Rise Set
Actual Time 7:06 AM EST 4:41 PM EST
Civil Twilight 6:35 AM EST 5:12 PM EST
Nautical Twilight 6:00 AM EST 5:46 PM EST
Astronomical Twilight 5:27 AM EST 6:20 PM EST
Moon 7:22 PM EST (11/20) 9:29 AM EST (11/20)
Length of Visible Light 10h 36m
Length of Day
9h 35m
Waning Gibbous, 91% of the Moon is Illuminated
Nov 20
Waning Gibbous
Nov 25
Last Quarter
Dec 2
New
Dec 9
First Quarter
Dec 17
Full

Hourly Weather History & Observations

Time (EST) Temp. Windchill Dew Point Humidity Pressure Visibility Wind Dir Wind Speed Gust Speed Precip Events Conditions
12:53 AM 28.9 °F - 21.0 °F 72% 30.45 in 10.0 mi Calm Calm - N/A   Partly Cloudy
1:53 AM 27.0 °F - 19.9 °F 75% 30.47 in 10.0 mi Calm Calm - N/A   Clear
2:53 AM 26.1 °F - 19.9 °F 78% 30.50 in 10.0 mi Calm Calm - N/A   Clear
3:53 AM 24.1 °F - 19.0 °F 81% 30.52 in 10.0 mi Calm Calm - N/A   Clear
4:53 AM 24.1 °F - 18.0 °F 77% 30.54 in 10.0 mi Calm Calm - N/A   Clear
5:53 AM 21.9 °F - 17.1 °F 82% 30.56 in 10.0 mi Calm Calm - N/A   Clear
6:53 AM 18.0 °F - 15.1 °F 88% 30.58 in 10.0 mi Calm Calm - N/A   Clear
7:53 AM 19.0 °F - 16.0 °F 88% 30.60 in 10.0 mi Calm Calm - N/A   Clear
8:53 AM 26.1 °F - 19.0 °F 75% 30.61 in 10.0 mi Calm Calm - N/A   Clear
9:53 AM 28.9 °F 23.9 °F 21.0 °F 72% 30.61 in 10.0 mi SSE 4.6 mph - N/A   Clear
10:53 AM 30.9 °F 27.5 °F 19.9 °F 64% 30.61 in 10.0 mi SE 3.5 mph - N/A   Clear
11:53 AM 33.1 °F - 21.0 °F 61% 30.59 in 10.0 mi Calm Calm - N/A   Clear
12:53 PM 36.0 °F - 21.0 °F 55% 30.57 in 10.0 mi Calm Calm - N/A   Clear
1:53 PM 39.0 °F - 19.0 °F 45% 30.56 in 10.0 mi Calm Calm - N/A   Clear
2:53 PM 37.9 °F 35.5 °F 21.0 °F 51% 30.54 in 10.0 mi Variable 3.5 mph - N/A   Clear
3:53 PM 35.1 °F 32.2 °F 21.9 °F 59% 30.53 in 10.0 mi ENE 3.5 mph - N/A   Clear
4:53 PM 33.1 °F 28.7 °F 23.0 °F 66% 30.53 in 10.0 mi East 4.6 mph - N/A   Clear
5:53 PM 32.0 °F - 21.0 °F 64% 30.54 in 10.0 mi Calm Calm - N/A   Clear
6:53 PM 28.9 °F - 19.9 °F 69% 30.55 in 10.0 mi Calm Calm - N/A   Clear
7:53 PM 30.0 °F - 19.0 °F 64% 30.54 in 10.0 mi Calm Calm - N/A   Clear
8:53 PM 28.9 °F - 15.1 °F 56% 30.53 in 10.0 mi Calm Calm - N/A   Clear
9:53 PM 30.0 °F - 14.0 °F 51% 30.53 in 10.0 mi Calm Calm - N/A   Clear
10:53 PM 33.1 °F 24.4 °F 15.1 °F 48% 30.53 in 10.0 mi SSE 11.5 mph - N/A   Clear
11:53 PM 32.0 °F 26.4 °F 12.9 °F 45% 30.53 in 10.0 mi South 5.8 mph - N/A   Clear